Change the Weather History Date:

Wednesday, August 28, 2013

  Actual Average Record
Temperature  
Mean Temperature 76 °F -  
Max Temperature 87 °F 80 °F 95 °F (1969)
Min Temperature 66 °F 55 °F 39 °F (1988)
Cooling Degree Days 12    
Growing Degree Days 26 (Base 50)    
Moisture  
Dew Point 69 °F    
Average Humidity 80    
Maximum Humidity 100    
Minimum Humidity 55    
Precipitation  
Precipitation 0.00 in - - ()
Sea Level Pressure  
Sea Level Pressure 30.00 in    
Wind  
Wind Speed 5 mph (East)    
Max Wind Speed 14 mph    
Max Gust Speed 18 mph    
Visibility 9 miles    
Events      
Averages and records for this station are not official NWS values.
T = Trace of Precipitation, MM = Missing Value Source: NWS Daily Summary

Daily Weather History Graph

Daily Weather History Graph

Search for Another Location

Airport or City:

Trip Planner

Search our weather history database for the weather conditions in past years. The results will help you decide how hot, cold, wet, or windy it might be!

Date:

Astronomy

Aug. 28, 2013 Rise Set
Actual Time 6:37 AM CDT 8:06 PM CDT
Civil Twilight 6:06 AM CDT 8:36 PM CDT
Nautical Twilight 5:29 AM CDT 9:14 PM CDT
Astronomical Twilight 4:48 AM CDT 9:54 PM CDT
Moon No Moon Rise 2:53 PM CDT (8/28)
Length of Visible Light 14h 30m
Length of Day
13h 28m
Waning Gibbous, 47% of the Moon is Illuminated
Aug 28
Waning Gibbous
Sep 5
New
Sep 12
First Quarter
Sep 19
Full
Sep 26
Last Quarter

Hourly Weather History & Observations

Time (CDT) Temp. Heat Index Dew Point Humidity Pressure Visibility Wind Dir Wind Speed Gust Speed Precip Events Conditions
12:18 AM 69.8 °F - 66.2 °F 88% 29.97 in 10.0 mi ENE 5.8 mph - N/A   Clear
12:33 AM 69.8 °F - 66.2 °F 88% 29.98 in 10.0 mi ENE 3.5 mph - N/A   Clear
12:53 AM 69.8 °F - 66.2 °F 88% 29.98 in 10.0 mi ENE 3.5 mph - N/A   Clear
1:13 AM 69.8 °F - 66.2 °F 88% 29.97 in 10.0 mi East 4.6 mph - N/A   Clear
1:53 AM 69.8 °F - 66.2 °F 88% 29.97 in 10.0 mi ENE 4.6 mph - N/A   Clear
2:13 AM 68.0 °F - 66.2 °F 94% 29.97 in 10.0 mi ENE 4.6 mph - N/A   Clear
2:33 AM 68.0 °F - 66.2 °F 94% 29.96 in 10.0 mi ENE 3.5 mph - N/A   Clear
2:53 AM 68.0 °F - 66.2 °F 94% 29.97 in 10.0 mi NE 4.6 mph - N/A   Clear
3:14 AM 68.0 °F - 66.2 °F 94% 29.96 in 7.0 mi NE 5.8 mph - N/A   Clear
3:33 AM 68.0 °F - 66.2 °F 94% 29.96 in 7.0 mi East 4.6 mph - N/A   Clear
3:53 AM 66.2 °F - 66.2 °F 100% 29.96 in 5.0 mi East 4.6 mph - N/A   Clear
4:13 AM 68.0 °F - 66.2 °F 94% 29.98 in 7.0 mi Calm Calm - N/A   Clear
4:33 AM 68.0 °F - 66.2 °F 94% 29.99 in 7.0 mi NNE 5.8 mph - N/A   Clear
4:53 AM 69.8 °F - 68.0 °F 94% 29.99 in 7.0 mi Calm Calm - N/A   Clear
5:13 AM 68.0 °F - 66.2 °F 94% 29.97 in 5.0 mi East 4.6 mph - N/A   Clear
5:33 AM 68.0 °F - 66.2 °F 94% 29.97 in 5.0 mi East 4.6 mph - N/A   Clear
5:53 AM 68.0 °F - 66.2 °F 94% 29.97 in 7.0 mi ESE 5.8 mph - N/A   Clear
6:13 AM 66.2 °F - 66.2 °F 100% 29.97 in 5.0 mi NE 4.6 mph - N/A   Clear
6:33 AM 66.2 °F - 66.2 °F 100% 29.99 in 7.0 mi NE 4.6 mph - N/A   Clear
6:54 AM 66.2 °F - 66.2 °F 100% 30.00 in 5.0 mi NE 5.8 mph - N/A   Clear
7:13 AM 66.2 °F - 66.2 °F 100% 30.00 in 4.0 mi ENE 4.6 mph - N/A   Clear
7:33 AM 68.0 °F - 66.2 °F 94% 30.00 in 4.0 mi ENE 5.8 mph - N/A   Clear
7:54 AM 69.8 °F - 68.0 °F 94% 30.01 in 5.0 mi ENE 3.5 mph - N/A   Clear
8:13 AM 71.6 °F - 68.0 °F 88% 30.02 in 7.0 mi East 4.6 mph - N/A   Clear
8:33 AM 71.6 °F - 69.8 °F 94% 30.03 in 7.0 mi East 4.6 mph - N/A   Clear
8:53 AM 73.4 °F - 69.8 °F 88% 30.03 in 10.0 mi ESE 3.5 mph - N/A   Clear
9:13 AM 75.2 °F - 69.8 °F 83% 30.04 in 10.0 mi ESE 4.6 mph - N/A   Clear
9:33 AM 78.8 °F - 69.8 °F 74% 30.04 in 10.0 mi East 3.5 mph - N/A   Clear
9:53 AM 78.8 °F - 69.8 °F 74% 30.05 in 10.0 mi East 3.5 mph - N/A   Clear
10:13 AM 78.8 °F - 69.8 °F 74% 30.05 in 10.0 mi ESE 3.5 mph - N/A   Clear
10:34 AM 80.6 °F 83.9 °F 69.8 °F 70% 30.05 in 10.0 mi East 3.5 mph - N/A   Clear
10:53 AM 80.6 °F 83.2 °F 68.0 °F 65% 30.05 in 10.0 mi ESE 3.5 mph - N/A   Clear
11:13 AM 82.4 °F 86.3 °F 69.8 °F 66% 30.05 in 10.0 mi Calm Calm - N/A   Clear
11:33 AM 82.4 °F 85.4 °F 68.0 °F 62% 30.05 in 10.0 mi East 4.6 mph - N/A   Clear
11:53 AM 82.4 °F 85.4 °F 68.0 °F 62% 30.05 in 10.0 mi ESE 4.6 mph - N/A   Clear
12:13 PM 80.6 °F 83.2 °F 68.0 °F 65% 30.05 in 10.0 mi East 6.9 mph - N/A   Clear
12:33 PM 80.6 °F 83.9 °F 69.8 °F 70% 30.03 in 10.0 mi ESE 8.1 mph - N/A   Light Drizzle
12:53 PM 82.4 °F 86.3 °F 69.8 °F 66% 30.03 in 10.0 mi ESE 9.2 mph - N/A   Clear
1:13 PM 82.4 °F 85.4 °F 68.0 °F 62% 30.02 in 10.0 mi ESE 11.5 mph - N/A   Clear
1:33 PM 82.4 °F 85.4 °F 68.0 °F 62% 30.01 in 10.0 mi East 10.4 mph - N/A   Clear
1:53 PM 82.4 °F 85.4 °F 68.0 °F 62% 29.99 in 10.0 mi East 13.8 mph - N/A   Clear
2:13 PM 82.4 °F 85.4 °F 68.0 °F 62% 29.99 in 10.0 mi East 12.7 mph 18.4 mph N/A   Clear
2:33 PM 86.0 °F 89.4 °F 68.0 °F 55% 30.00 in 10.0 mi ESE 10.4 mph - N/A   Clear
2:53 PM 87.8 °F 92.6 °F 69.8 °F 55% 30.01 in 10.0 mi ESE 10.4 mph - N/A   Clear
3:13 PM 87.8 °F 92.6 °F 69.8 °F 55% 30.01 in 10.0 mi SE 8.1 mph - N/A   Clear
3:33 PM 84.2 °F 88.4 °F 69.8 °F 62% 30.00 in 10.0 mi ESE 6.9 mph - N/A   Clear
3:53 PM 84.2 °F 88.4 °F 69.8 °F 62% 30.00 in 10.0 mi ESE 9.2 mph - N/A   Clear
4:13 PM 84.2 °F 88.4 °F 69.8 °F 62% 30.01 in 10.0 mi SE 8.1 mph - N/A   Clear
4:33 PM 86.0 °F 91.8 °F 71.6 °F 62% 30.01 in 10.0 mi ESE 8.1 mph - N/A   Clear
4:53 PM 87.8 °F 93.8 °F 71.6 °F 58% 30.01 in 10.0 mi SE 8.1 mph - N/A   Clear
5:13 PM 87.8 °F 93.8 °F 71.6 °F 58% 30.01 in 10.0 mi ESE 10.4 mph - N/A   Scattered Clouds
5:34 PM 84.2 °F 89.6 °F 71.6 °F 66% 30.01 in 10.0 mi SSE 9.2 mph - N/A   Clear
5:53 PM 84.2 °F 89.6 °F 71.6 °F 66% 30.01 in 10.0 mi SE 6.9 mph - N/A   Scattered Clouds
6:13 PM 86.0 °F 91.8 °F 71.6 °F 62% 30.01 in 10.0 mi SE 8.1 mph - N/A   Clear
6:33 PM 84.2 °F 89.6 °F 71.6 °F 66% 30.01 in 10.0 mi ESE 8.1 mph - N/A   Scattered Clouds
6:53 PM 82.4 °F 87.2 °F 71.6 °F 70% 30.01 in 10.0 mi SE 6.9 mph - N/A   Scattered Clouds
7:13 PM 82.4 °F 87.2 °F 71.6 °F 70% 30.00 in 10.0 mi ESE 4.6 mph - N/A   Clear
7:33 PM 80.6 °F 85.4 °F 73.4 °F 79% 30.00 in 10.0 mi ESE 5.8 mph - N/A   Clear
7:53 PM 80.6 °F 85.4 °F 73.4 °F 79% 30.00 in 10.0 mi ESE 3.5 mph - N/A   Clear
8:13 PM 78.8 °F - 73.4 °F 83% 30.00 in 10.0 mi East 4.6 mph - N/A   Clear
8:33 PM 75.2 °F - 71.6 °F 89% 30.00 in 10.0 mi East 4.6 mph - N/A   Clear
8:53 PM 75.2 °F - 71.6 °F 89% 30.01 in 10.0 mi ESE 5.8 mph - N/A   Clear
9:13 PM 75.2 °F - 71.6 °F 89% 30.01 in 10.0 mi East 5.8 mph - N/A   Clear
9:33 PM 75.2 °F - 71.6 °F 89% 30.01 in 10.0 mi East 5.8 mph - N/A   Clear
9:53 PM 73.4 °F - 71.6 °F 94% 30.01 in 10.0 mi East 5.8 mph - N/A   Clear
10:13 PM 73.4 °F - 71.6 °F 94% 30.01 in 10.0 mi ESE 5.8 mph - N/A   Clear
10:33 PM 73.4 °F - 71.6 °F 94% 30.01 in 10.0 mi ESE 5.8 mph - N/A   Clear
10:53 PM 73.4 °F - 71.6 °F 94% 30.01 in 10.0 mi ESE 5.8 mph - N/A   Clear
11:13 PM 73.4 °F - 69.8 °F 88% 30.01 in 10.0 mi ESE 5.8 mph - N/A   Clear
11:34 PM 73.4 °F - 69.8 °F 88% 30.00 in 10.0 mi ESE 5.8 mph - N/A   Clear
11:53 PM 71.6 °F - 69.8 °F 94% 30.01 in 10.0 mi ESE 5.8 mph - N/A   Clear